Time,TemperatureF,DewpointF,PressureIn,WindDirection,WindDirectionDegrees,WindSpeedMPH,WindSpeedGustMPH,Humidity,HourlyPrecipIn,Conditions,Clouds,dailyrainin,SoftwareType,DateUTC
2013-07-31 00:00:00,87.4,67.1,29.93,South,185,0.0,0.0,51,0.00,,,0.00,Wunderground v.1.15,2013-07-31 05:00:00,
2013-07-31 00:10:00,87.1,66.8,29.93,South,176,1.0,6.0,51,0.00,,,0.00,Wunderground v.1.15,2013-07-31 05:10:00,
2013-07-31 00:15:00,87.0,66.7,29.93,South,180,1.0,6.0,51,0.00,,,0.00,Wunderground v.1.15,2013-07-31 05:15:00,
2013-07-31 00:20:00,86.9,67.2,29.93,South,178,1.0,7.0,52,0.00,,,0.00,Wunderground v.1.15,2013-07-31 05:20:00,
2013-07-31 00:25:00,86.8,66.5,29.93,South,188,1.0,7.0,51,0.00,,,0.00,Wunderground v.1.15,2013-07-31 05:25:00,
2013-07-31 00:30:00,86.8,66.5,29.93,SSW,198,2.0,2.0,51,0.00,,,0.00,Wunderground v.1.15,2013-07-31 05:30:00,
2013-07-31 00:40:00,86.7,67.0,29.93,South,188,1.0,4.0,52,0.00,,,0.00,Wunderground v.1.15,2013-07-31 05:40:00,
2013-07-31 00:45:00,86.6,66.3,29.93,SSW,204,2.0,7.0,51,0.00,,,0.00,Wunderground v.1.15,2013-07-31 05:45:00,
2013-07-31 00:50:00,86.6,66.9,29.93,South,174,3.0,3.0,52,0.00,,,0.00,Wunderground v.1.15,2013-07-31 05:50:00,
2013-07-31 00:55:00,86.4,66.7,29.94,South,174,3.0,3.0,52,0.00,,,0.00,Wunderground v.1.15,2013-07-31 05:55:00,
2013-07-31 01:00:00,86.0,66.9,29.94,SSE,159,5.0,6.0,53,0.00,,,0.00,Wunderground v.1.15,2013-07-31 06:00:00,
2013-07-31 01:10:00,85.3,66.8,29.94,South,169,4.0,4.0,54,0.00,,,0.00,Wunderground v.1.15,2013-07-31 06:10:00,
2013-07-31 01:15:00,84.9,66.9,29.94,SSE,165,3.0,12.0,55,0.00,,,0.00,Wunderground v.1.15,2013-07-31 06:15:00,
2013-07-31 01:25:00,84.6,66.7,29.94,South,178,6.0,10.0,55,0.00,,,0.00,Wunderground v.1.15,2013-07-31 06:25:00,
2013-07-31 01:30:00,84.5,67.1,29.94,South,179,5.0,5.0,56,0.00,,,0.00,Wunderground v.1.15,2013-07-31 06:30:00,
2013-07-31 01:35:00,84.3,66.9,29.94,South,188,3.0,5.0,56,0.00,,,0.00,Wunderground v.1.15,2013-07-31 06:35:00,
2013-07-31 01:40:00,84.1,66.7,29.95,SSE,156,5.0,10.0,56,0.00,,,0.00,Wunderground v.1.15,2013-07-31 06:40:00,
2013-07-31 01:45:00,83.9,66.5,29.95,South,172,7.0,10.0,56,0.00,,,0.00,Wunderground v.1.15,2013-07-31 06:45:00,
2013-07-31 01:55:00,83.7,66.8,29.94,SSW,202,5.0,11.0,57,0.00,,,0.00,Wunderground v.1.15,2013-07-31 06:55:00,
2013-07-31 02:00:00,83.6,66.8,29.94,South,178,4.0,9.0,57,0.00,,,0.00,Wunderground v.1.15,2013-07-31 07:00:00,
2013-07-31 02:10:00,83.4,66.6,29.94,South,187,4.0,4.0,57,0.00,,,0.00,Wunderground v.1.15,2013-07-31 07:10:00,
2013-07-31 02:15:00,83.2,66.9,29.95,South,183,4.0,7.0,58,0.00,,,0.00,Wunderground v.1.15,2013-07-31 07:15:00,
2013-07-31 02:20:00,83.0,66.7,29.95,SSE,159,3.0,3.0,58,0.00,,,0.00,Wunderground v.1.15,2013-07-31 07:20:00,
2013-07-31 02:25:00,82.8,66.5,29.95,South,172,2.0,8.0,58,0.00,,,0.00,Wunderground v.1.15,2013-07-31 07:25:00,
2013-07-31 02:35:00,82.6,66.8,29.95,South,172,5.0,5.0,59,0.00,,,0.00,Wunderground v.1.15,2013-07-31 07:35:00,
2013-07-31 02:40:00,82.5,66.7,29.94,South,178,2.0,8.0,59,0.00,,,0.00,Wunderground v.1.15,2013-07-31 07:40:00,
2013-07-31 02:45:00,82.4,66.6,29.94,South,173,3.0,8.0,59,0.00,,,0.00,Wunderground v.1.15,2013-07-31 07:45:00,
2013-07-31 02:50:00,82.3,66.5,29.95,South,180,4.0,4.0,59,0.00,,,0.00,Wunderground v.1.15,2013-07-31 07:50:00,
2013-07-31 02:55:00,82.1,66.4,29.94,South,187,3.0,4.0,59,0.00,,,0.00,Wunderground v.1.15,2013-07-31 07:55:00,
2013-07-31 03:00:00,82.0,66.3,29.94,South,170,3.0,11.0,59,0.00,,,0.00,Wunderground v.1.15,2013-07-31 08:00:00,
2013-07-31 03:10:00,81.8,66.6,29.94,South,183,2.0,2.0,60,0.00,,,0.00,Wunderground v.1.15,2013-07-31 08:10:00,
2013-07-31 03:15:00,81.6,66.4,29.94,SSW,194,1.0,2.0,60,0.00,,,0.00,Wunderground v.1.15,2013-07-31 08:15:00,
2013-07-31 03:25:00,81.4,65.7,29.94,SSW,203,3.0,5.0,59,0.00,,,0.00,Wunderground v.1.15,2013-07-31 08:25:00,
2013-07-31 03:30:00,81.4,65.7,29.93,South,175,3.0,3.0,59,0.00,,,0.00,Wunderground v.1.15,2013-07-31 08:30:00,
2013-07-31 03:35:00,81.2,65.5,29.93,South,182,4.0,8.0,59,0.00,,,0.00,Wunderground v.1.15,2013-07-31 08:35:00,
2013-07-31 03:40:00,81.2,65.5,29.93,SSW,195,5.0,5.0,59,0.00,,,0.00,Wunderground v.1.15,2013-07-31 08:40:00,
2013-07-31 03:50:00,81.1,65.4,29.93,SSW,194,2.0,2.0,59,0.00,,,0.00,Wunderground v.1.15,2013-07-31 08:50:00,
2013-07-31 03:55:00,81.0,65.3,29.94,South,191,3.0,3.0,59,0.00,,,0.00,Wunderground v.1.15,2013-07-31 08:55:00,
2013-07-31 04:00:00,80.9,65.7,29.94,South,190,4.0,5.0,60,0.00,,,0.00,Wunderground v.1.15,2013-07-31 09:00:00,
2013-07-31 04:10:00,80.8,65.6,29.93,South,188,4.0,5.0,60,0.00,,,0.00,Wunderground v.1.15,2013-07-31 09:10:00,
2013-07-31 04:15:00,80.7,65.5,29.93,South,185,4.0,5.0,60,0.00,,,0.00,Wunderground v.1.15,2013-07-31 09:15:00,
2013-07-31 04:20:00,80.6,65.4,29.93,SSW,197,5.0,5.0,60,0.00,,,0.00,Wunderground v.1.15,2013-07-31 09:20:00,
2013-07-31 04:30:00,80.4,65.7,29.94,South,171,3.0,7.0,61,0.00,,,0.00,Wunderground v.1.15,2013-07-31 09:30:00,
2013-07-31 04:35:00,80.3,66.1,29.94,SSW,192,4.0,7.0,62,0.00,,,0.00,Wunderground v.1.15,2013-07-31 09:35:00,
2013-07-31 04:40:00,80.2,66.0,29.94,SW,219,3.0,3.0,62,0.00,,,0.00,Wunderground v.1.15,2013-07-31 09:40:00,
2013-07-31 04:45:00,80.1,65.9,29.94,SSE,167,2.0,9.0,62,0.00,,,0.00,Wunderground v.1.15,2013-07-31 09:45:00,
2013-07-31 04:50:00,80.0,66.3,29.94,South,188,2.0,2.0,63,0.00,,,0.00,Wunderground v.1.15,2013-07-31 09:50:00,
2013-07-31 05:00:00,79.8,66.5,29.94,South,171,1.0,6.0,64,0.00,,,0.00,Wunderground v.1.15,2013-07-31 10:00:00,
2013-07-31 05:10:00,79.7,66.9,29.94,SSW,198,2.0,2.0,65,0.00,,,0.00,Wunderground v.1.15,2013-07-31 10:10:00,
2013-07-31 05:20:00,79.5,66.7,29.94,South,188,1.0,1.0,65,0.00,,,0.00,Wunderground v.1.15,2013-07-31 10:20:00,
2013-07-31 05:25:00,79.4,67.0,29.95,SSW,196,2.0,3.0,66,0.00,,,0.00,Wunderground v.1.15,2013-07-31 10:25:00,
2013-07-31 05:30:00,79.3,67.0,29.95,South,191,2.0,2.0,66,0.00,,,0.00,Wunderground v.1.15,2013-07-31 10:30:00,
2013-07-31 05:35:00,79.2,67.3,29.95,SSW,198,1.0,5.0,67,0.00,,,0.00,Wunderground v.1.15,2013-07-31 10:35:00,
2013-07-31 05:40:00,79.1,67.2,29.95,SSW,195,1.0,1.0,67,0.00,,,0.00,Wunderground v.1.15,2013-07-31 10:40:00,
2013-07-31 05:50:00,79.0,67.5,29.96,South,189,1.0,4.0,68,0.00,,,0.00,Wunderground v.1.15,2013-07-31 10:50:00,
2013-07-31 05:55:00,79.0,68.0,29.96,South,188,1.0,4.0,69,0.00,,,0.00,Wunderground v.1.15,2013-07-31 10:55:00,
2013-07-31 06:00:00,78.9,67.9,29.97,SSW,198,1.0,1.0,69,0.00,,,0.00,Wunderground v.1.15,2013-07-31 11:00:00,
2013-07-31 06:10:00,78.9,68.3,29.97,South,181,1.0,1.0,70,0.00,,,0.00,Wunderground v.1.15,2013-07-31 11:10:00,
2013-07-31 06:15:00,78.9,68.7,29.98,South,184,1.0,4.0,71,0.00,,,0.00,Wunderground v.1.15,2013-07-31 11:15:00,
2013-07-31 06:20:00,78.8,68.6,29.98,South,186,1.0,1.0,71,0.00,,,0.00,Wunderground v.1.15,2013-07-31 11:20:00,
2013-07-31 06:30:00,78.7,68.9,29.98,South,184,2.0,2.0,72,0.00,,,0.00,Wunderground v.1.15,2013-07-31 11:30:00,
2013-07-31 06:35:00,78.6,68.8,29.98,South,187,1.0,2.0,72,0.00,,,0.00,Wunderground v.1.15,2013-07-31 11:35:00,
2013-07-31 06:40:00,78.6,68.8,29.98,South,187,1.0,1.0,72,0.00,,,0.00,Wunderground v.1.15,2013-07-31 11:40:00,
2013-07-31 06:45:00,78.6,69.2,29.98,SSW,194,1.0,9.0,73,0.00,,,0.00,Wunderground v.1.15,2013-07-31 11:45:00,
2013-07-31 06:55:00,78.7,69.3,29.99,South,180,2.0,3.0,73,0.00,,,0.00,Wunderground v.1.15,2013-07-31 11:55:00,
2013-07-31 07:00:00,78.8,69.4,29.99,South,180,2.0,6.0,73,0.00,,,0.00,Wunderground v.1.15,2013-07-31 12:00:00,
2013-07-31 07:10:00,78.8,69.4,29.99,South,183,2.0,2.0,73,0.00,,,0.00,Wunderground v.1.15,2013-07-31 12:10:00,
2013-07-31 07:15:00,78.9,69.9,29.99,South,180,3.0,3.0,74,0.00,,,0.00,Wunderground v.1.15,2013-07-31 12:15:00,
2013-07-31 07:20:00,79.0,70.0,29.99,South,182,3.0,3.0,74,0.00,,,0.00,Wunderground v.1.15,2013-07-31 12:20:00,
2013-07-31 07:25:00,79.0,70.0,29.99,South,180,3.0,6.0,74,0.00,,,0.00,Wunderground v.1.15,2013-07-31 12:25:00,
2013-07-31 07:30:00,79.1,70.1,29.99,South,180,3.0,4.0,74,0.00,,,0.00,Wunderground v.1.15,2013-07-31 12:30:00,
2013-07-31 07:35:00,79.1,70.1,29.99,South,187,2.0,6.0,74,0.00,,,0.00,Wunderground v.1.15,2013-07-31 12:35:00,
2013-07-31 07:45:00,79.1,70.1,29.99,South,183,4.0,4.0,74,0.00,,,0.00,Wunderground v.1.15,2013-07-31 12:45:00,
2013-07-31 07:50:00,79.2,70.6,29.99,South,186,4.0,4.0,75,0.00,,,0.00,Wunderground v.1.15,2013-07-31 12:50:00,
2013-07-31 07:55:00,79.2,70.6,29.99,SSW,192,3.0,5.0,75,0.00,,,0.00,Wunderground v.1.15,2013-07-31 12:55:00,
2013-07-31 08:00:00,79.3,70.7,30.00,South,182,2.0,5.0,75,0.00,,,0.00,Wunderground v.1.15,2013-07-31 13:00:00,
2013-07-31 08:10:00,79.3,70.7,30.00,South,185,3.0,5.0,75,0.00,,,0.00,Wunderground v.1.15,2013-07-31 13:10:00,
2013-07-31 08:15:00,79.4,70.8,30.00,South,178,4.0,5.0,75,0.00,,,0.00,Wunderground v.1.15,2013-07-31 13:15:00,
2013-07-31 08:25:00,79.6,71.4,30.00,South,184,4.0,4.0,76,0.00,,,0.00,Wunderground v.1.15,2013-07-31 13:25:00,
2013-07-31 08:30:00,79.8,71.2,30.00,SSW,197,4.0,4.0,75,0.00,,,0.00,Wunderground v.1.15,2013-07-31 13:30:00,
2013-07-31 08:35:00,80.1,71.5,30.00,South,188,2.0,4.0,75,0.00,,,0.00,Wunderground v.1.15,2013-07-31 13:35:00,
2013-07-31 08:40:00,80.5,71.8,30.00,South,176,2.0,2.0,75,0.00,,,0.00,Wunderground v.1.15,2013-07-31 13:40:00,
2013-07-31 08:45:00,81.1,72.0,30.00,SSW,192,1.0,2.0,74,0.00,,,0.00,Wunderground v.1.15,2013-07-31 13:45:00,
2013-07-31 08:55:00,81.9,72.0,30.00,SSW,192,3.0,3.0,72,0.00,,,0.00,Wunderground v.1.15,2013-07-31 13:55:00,
2013-07-31 09:00:00,82.3,72.0,30.00,South,183,3.0,3.0,71,0.00,,,0.00,Wunderground v.1.15,2013-07-31 14:00:00,
2013-07-31 09:10:00,82.9,72.1,30.01,SSW,207,2.0,9.0,70,0.00,,,0.00,Wunderground v.1.15,2013-07-31 14:10:00,
2013-07-31 09:15:00,83.4,72.6,30.00,SSW,211,3.0,9.0,70,0.00,,,0.00,Wunderground v.1.15,2013-07-31 14:15:00,
2013-07-31 09:20:00,84.0,71.9,30.01,SSW,209,3.0,3.0,67,0.00,,,0.00,Wunderground v.1.15,2013-07-31 14:20:00,
2013-07-31 09:25:00,84.4,72.2,30.01,SW,224,3.0,3.0,67,0.00,,,0.00,Wunderground v.1.15,2013-07-31 14:25:00,
2013-07-31 09:35:00,85.5,72.4,30.01,SW,219,3.0,3.0,65,0.00,,,0.00,Wunderground v.1.15,2013-07-31 14:35:00,
2013-07-31 09:40:00,85.5,72.4,30.01,South,190,3.0,3.0,65,0.00,,,0.00,Wunderground v.1.15,2013-07-31 14:40:00,
2013-07-31 09:45:00,85.1,72.0,30.01,SW,215,3.0,3.0,65,0.00,,,0.00,Wunderground v.1.15,2013-07-31 14:45:00,
2013-07-31 09:55:00,84.7,72.1,30.01,SSW,211,1.0,5.0,66,0.00,,,0.00,Wunderground v.1.15,2013-07-31 14:55:00,
2013-07-31 10:00:00,84.7,71.6,30.01,SSW,213,2.0,2.0,65,0.00,,,0.00,Wunderground v.1.15,2013-07-31 15:00:00,
2013-07-31 10:10:00,84.5,71.9,30.01,SSW,205,3.0,5.0,66,0.00,,,0.00,Wunderground v.1.15,2013-07-31 15:10:00,
2013-07-31 10:15:00,84.9,72.3,30.01,SW,220,4.0,5.0,66,0.00,,,0.00,Wunderground v.1.15,2013-07-31 15:15:00,
2013-07-31 10:20:00,85.5,72.4,30.00,SSW,205,5.0,5.0,65,0.00,,,0.00,Wunderground v.1.15,2013-07-31 15:20:00,
2013-07-31 10:25:00,86.1,72.5,30.00,SW,225,5.0,5.0,64,0.00,,,0.00,Wunderground v.1.15,2013-07-31 15:25:00,
2013-07-31 10:35:00,86.5,72.4,30.00,SW,234,4.0,12.0,63,0.00,,,0.00,Wunderground v.1.15,2013-07-31 15:35:00,
2013-07-31 10:40:00,86.9,71.8,30.00,SSW,200,4.0,4.0,61,0.00,,,0.00,Wunderground v.1.15,2013-07-31 15:40:00,
2013-07-31 10:45:00,87.7,72.6,30.00,SW,223,4.0,7.0,61,0.00,,,0.00,Wunderground v.1.15,2013-07-31 15:45:00,
2013-07-31 10:50:00,88.2,71.0,30.00,SW,217,5.0,5.0,57,0.00,,,0.00,Wunderground v.1.15,2013-07-31 15:50:00,
2013-07-31 10:55:00,88.5,72.8,30.00,WSW,246,5.0,11.0,60,0.00,,,0.00,Wunderground v.1.15,2013-07-31 15:55:00,
2013-07-31 11:00:00,88.7,71.5,30.00,WSW,239,6.0,6.0,57,0.00,,,0.00,Wunderground v.1.15,2013-07-31 16:00:00,
2013-07-31 11:10:00,89.2,71.5,30.00,SSW,213,6.0,6.0,56,0.00,,,0.00,Wunderground v.1.15,2013-07-31 16:10:00,
2013-07-31 11:20:00,90.2,71.3,29.99,West,265,5.0,7.0,54,0.00,,,0.00,Wunderground v.1.15,2013-07-31 16:20:00,
2013-07-31 11:25:00,90.4,71.5,29.99,SW,225,5.0,7.0,54,0.00,,,0.00,Wunderground v.1.15,2013-07-31 16:25:00,
2013-07-31 11:30:00,91.1,71.6,30.00,SW,228,5.0,5.0,53,0.00,,,0.00,Wunderground v.1.15,2013-07-31 16:30:00,
2013-07-31 11:35:00,91.3,70.1,30.00,SSW,211,5.0,5.0,50,0.00,,,0.00,Wunderground v.1.15,2013-07-31 16:35:00,
2013-07-31 11:45:00,91.7,72.1,29.99,SW,229,6.0,8.0,53,0.00,,,0.00,Wunderground v.1.15,2013-07-31 16:45:00,
2013-07-31 11:50:00,92.0,70.7,29.99,WSW,250,6.0,6.0,50,0.00,,,0.00,Wunderground v.1.15,2013-07-31 16:50:00,
2013-07-31 11:55:00,92.5,71.2,29.99,SW,215,6.0,6.0,50,0.00,,,0.00,Wunderground v.1.15,2013-07-31 16:55:00,
2013-07-31 12:00:00,93.1,71.1,29.99,SW,217,4.0,4.0,49,0.00,,,0.00,Wunderground v.1.15,2013-07-31 17:00:00,
2013-07-31 12:10:00,93.1,69.9,29.99,SSW,211,5.0,5.0,47,0.00,,,0.00,Wunderground v.1.15,2013-07-31 17:10:00,
2013-07-31 12:15:00,93.0,70.4,29.98,SW,232,6.0,6.0,48,0.00,,,0.00,Wunderground v.1.15,2013-07-31 17:15:00,
2013-07-31 12:25:00,93.8,71.7,29.97,SW,219,4.0,7.0,49,0.00,,,0.00,Wunderground v.1.15,2013-07-31 17:25:00,
2013-07-31 12:30:00,94.2,70.9,29.97,SSW,202,5.0,7.0,47,0.00,,,0.00,Wunderground v.1.15,2013-07-31 17:30:00,
2013-07-31 12:35:00,94.4,71.7,29.97,SW,225,5.0,10.0,48,0.00,,,0.00,Wunderground v.1.15,2013-07-31 17:35:00,
2013-07-31 12:40:00,94.4,72.3,29.97,SSW,201,6.0,9.0,49,0.00,,,0.00,Wunderground v.1.15,2013-07-31 17:40:00,
2013-07-31 12:45:00,94.6,71.2,29.98,SW,236,6.0,9.0,47,0.00,,,0.00,Wunderground v.1.15,2013-07-31 17:45:00,
2013-07-31 12:55:00,95.7,71.6,29.97,SW,219,3.0,4.0,46,0.00,,,0.00,Wunderground v.1.15,2013-07-31 17:55:00,
2013-07-31 13:00:00,95.6,71.5,29.97,WSW,240,6.0,6.0,46,0.00,,,0.00,Wunderground v.1.15,2013-07-31 18:00:00,
2013-07-31 13:10:00,95.9,73.1,29.96,SSW,200,4.0,4.0,48,0.00,,,0.00,Wunderground v.1.15,2013-07-31 18:10:00,
2013-07-31 13:15:00,96.0,71.9,29.96,WSW,244,5.0,10.0,46,0.00,,,0.00,Wunderground v.1.15,2013-07-31 18:15:00,
2013-07-31 13:20:00,95.8,71.1,29.96,West,269,5.0,5.0,45,0.00,,,0.00,Wunderground v.1.15,2013-07-31 18:20:00,
2013-07-31 13:25:00,96.5,71.7,29.96,SW,221,5.0,12.0,45,0.00,,,0.00,Wunderground v.1.15,2013-07-31 18:25:00,
2013-07-31 13:30:00,96.8,71.3,29.96,WSW,254,6.0,7.0,44,0.00,,,0.00,Wunderground v.1.15,2013-07-31 18:30:00,
2013-07-31 13:35:00,96.6,72.4,29.95,West,262,5.0,7.0,46,0.00,,,0.00,Wunderground v.1.15,2013-07-31 18:35:00,
2013-07-31 13:45:00,97.2,72.3,29.95,SW,229,4.0,4.0,45,0.00,,,0.00,Wunderground v.1.15,2013-07-31 18:45:00,
2013-07-31 13:50:00,97.6,72.0,29.95,West,277,3.0,3.0,44,0.00,,,0.00,Wunderground v.1.15,2013-07-31 18:50:00,
2013-07-31 13:55:00,98.0,72.4,29.95,SW,221,1.0,3.0,44,0.00,,,0.00,Wunderground v.1.15,2013-07-31 18:55:00,
2013-07-31 14:00:00,98.0,72.4,29.95,SSW,211,2.0,2.0,44,0.00,,,0.00,Wunderground v.1.15,2013-07-31 19:00:00,
2013-07-31 14:10:00,98.4,73.4,29.95,NW,313,3.0,3.0,45,0.00,,,0.00,Wunderground v.1.15,2013-07-31 19:10:00,
2013-07-31 14:15:00,98.7,74.3,29.94,WNW,303,2.0,3.0,46,0.00,,,0.00,Wunderground v.1.15,2013-07-31 19:15:00,
2013-07-31 14:25:00,98.8,75.1,29.94,NNW,342,1.0,4.0,47,0.00,,,0.00,Wunderground v.1.15,2013-07-31 19:25:00,
2013-07-31 14:30:00,99.4,72.3,29.94,North,360,3.0,3.0,42,0.00,,,0.00,Wunderground v.1.15,2013-07-31 19:30:00,
2013-07-31 14:35:00,99.8,72.6,29.94,NW,318,4.0,8.0,42,0.00,,,0.00,Wunderground v.1.15,2013-07-31 19:35:00,
2013-07-31 14:45:00,99.9,73.4,29.93,NNW,338,4.0,6.0,43,0.00,,,0.00,Wunderground v.1.15,2013-07-31 19:45:00,
2013-07-31 14:50:00,100.1,73.6,29.92,North,360,2.0,2.0,43,0.00,,,0.00,Wunderground v.1.15,2013-07-31 19:50:00,
2013-07-31 14:55:00,100.4,75.2,29.92,NNW,342,1.0,2.0,45,0.00,,,0.00,Wunderground v.1.15,2013-07-31 19:55:00,
2013-07-31 15:00:00,100.1,73.6,29.92,NNW,341,2.0,2.0,43,0.00,,,0.00,Wunderground v.1.15,2013-07-31 20:00:00,
2013-07-31 15:10:00,100.5,73.2,29.92,WNW,292,1.0,7.0,42,0.00,,,0.00,Wunderground v.1.15,2013-07-31 20:10:00,
2013-07-31 15:15:00,100.3,73.1,29.91,SW,232,2.0,7.0,42,0.00,,,0.00,Wunderground v.1.15,2013-07-31 20:15:00,
2013-07-31 15:20:00,100.7,73.4,29.91,SW,217,2.0,3.0,42,0.00,,,0.00,Wunderground v.1.15,2013-07-31 20:20:00,
2013-07-31 15:25:00,100.6,73.3,29.91,WNW,286,1.0,8.0,42,0.00,,,0.00,Wunderground v.1.15,2013-07-31 20:25:00,
2013-07-31 15:35:00,100.8,73.5,29.91,West,274,2.0,4.0,42,0.00,,,0.00,Wunderground v.1.15,2013-07-31 20:35:00,
2013-07-31 15:40:00,101.1,73.1,29.91,WSW,258,1.0,1.0,41,0.00,,,0.00,Wunderground v.1.15,2013-07-31 20:40:00,
2013-07-31 15:45:00,100.9,73.6,29.91,WSW,258,0.0,1.0,42,0.00,,,0.00,Wunderground v.1.15,2013-07-31 20:45:00,
2013-07-31 15:50:00,100.9,73.6,29.91,WSW,258,0.0,0.0,42,0.00,,,0.00,Wunderground v.1.15,2013-07-31 20:50:00,
2013-07-31 16:00:00,101.8,73.7,29.90,WSW,258,0.0,0.0,41,0.00,,,0.00,Wunderground v.1.15,2013-07-31 21:00:00,
2013-07-31 16:10:00,102.4,73.5,29.90,WSW,240,2.0,2.0,40,0.00,,,0.00,Wunderground v.1.15,2013-07-31 21:10:00,
2013-07-31 16:15:00,102.5,75.0,29.89,WSW,240,1.0,2.0,42,0.00,,,0.00,Wunderground v.1.15,2013-07-31 21:15:00,
2013-07-31 16:20:00,102.8,73.1,29.89,WSW,240,0.0,3.0,39,0.00,,,0.00,Wunderground v.1.15,2013-07-31 21:20:00,
2013-07-31 16:25:00,102.7,73.0,29.89,WSW,240,0.0,3.0,39,0.00,,,0.00,Wunderground v.1.15,2013-07-31 21:25:00,
2013-07-31 16:30:00,103.0,73.3,29.88,WSW,240,1.0,4.0,39,0.00,,,0.00,Wunderground v.1.15,2013-07-31 21:30:00,
2013-07-31 16:40:00,101.6,72.8,29.88,South,179,1.0,4.0,40,0.00,,,0.00,Wunderground v.1.15,2013-07-31 21:40:00,
2013-07-31 16:45:00,101.3,73.2,29.87,South,177,1.0,4.0,41,0.00,,,0.00,Wunderground v.1.15,2013-07-31 21:45:00,
2013-07-31 16:50:00,101.8,72.2,29.87,East,94,2.0,2.0,39,0.00,,,0.00,Wunderground v.1.15,2013-07-31 21:50:00,
2013-07-31 16:55:00,101.9,73.0,29.87,East,94,2.0,2.0,40,0.00,,,0.00,Wunderground v.1.15,2013-07-31 21:55:00,
2013-07-31 17:00:00,101.9,70.7,29.87,East,94,0.0,0.0,37,0.00,,,0.00,Wunderground v.1.15,2013-07-31 22:00:00,
2013-07-31 17:10:00,101.8,72.2,29.87,East,94,0.0,0.0,39,0.00,,,0.00,Wunderground v.1.15,2013-07-31 22:10:00,
2013-07-31 17:15:00,101.5,71.2,29.87,East,94,0.0,0.0,38,0.00,,,0.00,Wunderground v.1.15,2013-07-31 22:15:00,
2013-07-31 17:25:00,100.7,72.0,29.86,East,94,0.0,4.0,40,0.00,,,0.00,Wunderground v.1.15,2013-07-31 22:25:00,
2013-07-31 17:30:00,100.7,72.7,29.86,East,94,0.0,0.0,41,0.00,,,0.00,Wunderground v.1.15,2013-07-31 22:30:00,
2013-07-31 17:35:00,101.0,70.7,29.86,East,94,0.0,0.0,38,0.00,,,0.00,Wunderground v.1.15,2013-07-31 22:35:00,
2013-07-31 17:40:00,101.2,72.4,29.86,East,94,0.0,0.0,40,0.00,,,0.00,Wunderground v.1.15,2013-07-31 22:40:00,
2013-07-31 17:50:00,101.1,71.6,29.86,East,94,0.0,0.0,39,0.00,,,0.00,Wunderground v.1.15,2013-07-31 22:50:00,
2013-07-31 17:55:00,101.0,72.2,29.85,East,94,0.0,0.0,40,0.00,,,0.00,Wunderground v.1.15,2013-07-31 22:55:00,
2013-07-31 18:00:00,100.8,72.1,29.85,East,94,0.0,0.0,40,0.00,,,0.00,Wunderground v.1.15,2013-07-31 23:00:00,
2013-07-31 18:10:00,100.4,71.7,29.85,East,94,0.0,0.0,40,0.00,,,0.00,Wunderground v.1.15,2013-07-31 23:10:00,
2013-07-31 18:15:00,100.1,71.4,29.85,East,94,0.0,0.0,40,0.00,,,0.00,Wunderground v.1.15,2013-07-31 23:15:00,
2013-07-31 18:20:00,99.8,71.2,29.85,East,94,0.0,0.0,40,0.00,,,0.00,Wunderground v.1.15,2013-07-31 23:20:00,
2013-07-31 18:30:00,99.5,72.3,29.85,East,94,0.0,0.0,42,0.00,,,0.00,Wunderground v.1.15,2013-07-31 23:30:00,
2013-07-31 18:35:00,99.5,71.6,29.85,East,94,0.0,0.0,41,0.00,,,0.00,Wunderground v.1.15,2013-07-31 23:35:00,
2013-07-31 18:40:00,99.5,70.9,29.85,South,184,0.0,3.0,40,0.00,,,0.00,Wunderground v.1.15,2013-07-31 23:40:00,
2013-07-31 18:45:00,99.2,71.4,29.85,SSE,150,1.0,7.0,41,0.00,,,0.00,Wunderground v.1.15,2013-07-31 23:45:00,
2013-07-31 18:50:00,99.0,70.5,29.85,SSE,154,3.0,5.0,40,0.00,,,0.00,Wunderground v.1.15,2013-07-31 23:50:00,
2013-07-31 19:00:00,98.6,70.8,29.86,SSE,151,2.0,2.0,41,0.00,,,0.00,Wunderground v.1.15,2013-08-01 00:00:00,
2013-07-31 19:10:00,98.1,70.4,29.86,SSE,158,1.0,2.0,41,0.00,,,0.00,Wunderground v.1.15,2013-08-01 00:10:00,
2013-07-31 19:20:00,97.6,69.9,29.86,SSE,164,1.0,4.0,41,0.00,,,0.00,Wunderground v.1.15,2013-08-01 00:20:00,
2013-07-31 19:25:00,97.4,69.0,29.86,South,170,1.0,4.0,40,0.00,,,0.00,Wunderground v.1.15,2013-08-01 00:25:00,
2013-07-31 19:30:00,97.2,69.6,29.86,South,172,0.0,0.0,41,0.00,,,0.00,Wunderground v.1.15,2013-08-01 00:30:00,
2013-07-31 19:40:00,96.8,69.9,29.87,South,172,0.0,0.0,42,0.00,,,0.00,Wunderground v.1.15,2013-08-01 00:40:00,
2013-07-31 19:45:00,96.7,69.8,29.88,South,172,0.0,0.0,42,0.00,,,0.00,Wunderground v.1.15,2013-08-01 00:45:00,
2013-07-31 19:50:00,96.1,70.0,29.88,WSW,254,3.0,7.0,43,0.00,,,0.00,Wunderground v.1.15,2013-08-01 00:50:00,
2013-07-31 19:55:00,95.3,69.9,29.88,WSW,248,3.0,7.0,44,0.00,,,0.00,Wunderground v.1.15,2013-08-01 00:55:00,
2013-07-31 20:00:00,94.5,69.2,29.88,WSW,246,1.0,1.0,44,0.00,,,0.00,Wunderground v.1.15,2013-08-01 01:00:00,
2013-07-31 20:10:00,94.0,70.1,29.88,WSW,246,0.0,0.0,46,0.00,,,0.00,Wunderground v.1.15,2013-08-01 01:10:00,
2013-07-31 20:15:00,93.8,69.9,29.88,WSW,246,0.0,0.0,46,0.00,,,0.00,Wunderground v.1.15,2013-08-01 01:15:00,
2013-07-31 20:20:00,93.6,70.3,29.88,WSW,246,0.0,0.0,47,0.00,,,0.00,Wunderground v.1.15,2013-08-01 01:20:00,
2013-07-31 20:30:00,93.1,71.1,29.88,WSW,246,0.0,0.0,49,0.00,,,0.00,Wunderground v.1.15,2013-08-01 01:30:00,
2013-07-31 20:35:00,92.7,70.1,29.88,WSW,246,0.0,0.0,48,0.00,,,0.00,Wunderground v.1.15,2013-08-01 01:35:00,
2013-07-31 20:40:00,92.4,69.9,29.88,WSW,246,0.0,0.0,48,0.00,,,0.00,Wunderground v.1.15,2013-08-01 01:40:00,
2013-07-31 20:45:00,92.2,69.7,29.88,WSW,246,0.0,0.0,48,0.00,,,0.00,Wunderground v.1.15,2013-08-01 01:45:00,
2013-07-31 20:55:00,92.1,69.6,29.88,WSW,246,0.0,0.0,48,0.00,,,0.00,Wunderground v.1.15,2013-08-01 01:55:00,
2013-07-31 21:00:00,92.1,69.6,29.88,WSW,246,0.0,0.0,48,0.00,,,0.00,Wunderground v.1.15,2013-08-01 02:00:00,
2013-07-31 21:10:00,92.0,70.7,29.88,WSW,246,0.0,0.0,50,0.00,,,0.00,Wunderground v.1.15,2013-08-01 02:10:00,
2013-07-31 21:15:00,91.8,70.5,29.88,WSW,246,0.0,0.0,50,0.00,,,0.00,Wunderground v.1.15,2013-08-01 02:15:00,
2013-07-31 21:20:00,91.6,70.9,29.88,WSW,246,0.0,0.0,51,0.00,,,0.00,Wunderground v.1.15,2013-08-01 02:20:00,
2013-07-31 21:25:00,91.3,70.1,29.89,WSW,246,0.0,0.0,50,0.00,,,0.00,Wunderground v.1.15,2013-08-01 02:25:00,
2013-07-31 21:30:00,91.1,70.5,29.89,WSW,246,0.0,0.0,51,0.00,,,0.00,Wunderground v.1.15,2013-08-01 02:30:00,
2013-07-31 21:40:00,90.7,70.7,29.89,WSW,246,0.0,0.0,52,0.00,,,0.00,Wunderground v.1.15,2013-08-01 02:40:00,
2013-07-31 21:45:00,90.4,70.9,29.89,WSW,246,0.0,0.0,53,0.00,,,0.00,Wunderground v.1.15,2013-08-01 02:45:00,
2013-07-31 21:50:00,90.0,70.6,29.89,WSW,246,0.0,0.0,53,0.00,,,0.00,Wunderground v.1.15,2013-08-01 02:50:00,
2013-07-31 21:55:00,89.7,70.8,29.89,WSW,246,0.0,0.0,54,0.00,,,0.00,Wunderground v.1.15,2013-08-01 02:55:00,
2013-07-31 22:00:00,89.5,70.7,29.89,WSW,246,0.0,0.0,54,0.00,,,0.00,Wunderground v.1.15,2013-08-01 03:00:00,
2013-07-31 22:10:00,88.9,71.2,29.89,WSW,246,0.0,0.0,56,0.00,,,0.00,Wunderground v.1.15,2013-08-01 03:10:00,
2013-07-31 22:15:00,88.8,71.1,29.89,WSW,246,0.0,0.0,56,0.00,,,0.00,Wunderground v.1.15,2013-08-01 03:15:00,
2013-07-31 22:25:00,88.6,71.9,29.89,WSW,246,0.0,0.0,58,0.00,,,0.00,Wunderground v.1.15,2013-08-01 03:25:00,
2013-07-31 22:30:00,88.5,71.8,29.89,WSW,246,0.0,0.0,58,0.00,,,0.00,Wunderground v.1.15,2013-08-01 03:30:00,
2013-07-31 22:35:00,88.5,71.3,29.90,WSW,246,0.0,0.0,57,0.00,,,0.00,Wunderground v.1.15,2013-08-01 03:35:00,
2013-07-31 22:45:00,88.2,72.1,29.90,WSW,246,0.0,0.0,59,0.00,,,0.00,Wunderground v.1.15,2013-08-01 03:45:00,
2013-07-31 22:50:00,88.0,71.4,29.90,WSW,246,0.0,0.0,58,0.00,,,0.00,Wunderground v.1.15,2013-08-01 03:50:00,
2013-07-31 22:55:00,87.9,71.3,29.91,WSW,246,0.0,0.0,58,0.00,,,0.00,Wunderground v.1.15,2013-08-01 03:55:00,
2013-07-31 23:00:00,87.9,71.3,29.91,WSW,246,0.0,0.0,58,0.00,,,0.00,Wunderground v.1.15,2013-08-01 04:00:00,
2013-07-31 23:05:00,87.9,71.8,29.91,WSW,246,0.0,0.0,59,0.00,,,0.00,Wunderground v.1.15,2013-08-01 04:05:00,
2013-07-31 23:10:00,87.9,71.8,29.91,WSW,246,0.0,0.0,59,0.00,,,0.00,Wunderground v.1.15,2013-08-01 04:10:00,
2013-07-31 23:15:00,87.8,71.7,29.91,WSW,246,0.0,0.0,59,0.00,,,0.00,Wunderground v.1.15,2013-08-01 04:15:00,
2013-07-31 23:20:00,87.7,71.6,29.91,WSW,246,0.0,0.0,59,0.00,,,0.00,Wunderground v.1.15,2013-08-01 04:20:00,
2013-07-31 23:30:00,87.6,72.0,29.91,WSW,246,0.0,0.0,60,0.00,,,0.00,Wunderground v.1.15,2013-08-01 04:30:00,
2013-07-31 23:35:00,87.6,72.0,29.91,WSW,246,0.0,0.0,60,0.00,,,0.00,Wunderground v.1.15,2013-08-01 04:35:00,
2013-07-31 23:40:00,87.5,71.9,29.91,WSW,246,0.0,0.0,60,0.00,,,0.00,Wunderground v.1.15,2013-08-01 04:40:00,
2013-07-31 23:45:00,87.4,71.8,29.91,WSW,246,0.0,0.0,60,0.00,,,0.00,Wunderground v.1.15,2013-08-01 04:45:00,
2013-07-31 23:50:00,87.3,71.7,29.91,WSW,246,0.0,0.0,60,0.00,,,0.00,Wunderground v.1.15,2013-08-01 04:50:00,
2013-07-31 23:55:00,87.0,71.4,29.91,WSW,246,0.0,0.0,60,0.00,,,0.00,Wunderground v.1.15,2013-08-01 04:55:00,